Погода в Хани

Россия / Республика Саха (Якутия)     56°54′58″N   119°57′58″E
темп.,
°C
ветер,
м/с
пор.,
м/с
влажн.,
%
обл.,
%
осадки,
мм/ч
давл.,
гПа
погр.,
м
27 февраля, сб
сб2700:00−25вюв22100100 0.1 102327
03:00−25юв11100100 0.7 102070
06:00−25ссв1199100 0.8 101925
09:00−22сз2397100 1.4 1019202
12:00−23ссз4588100 0.6 1019731
15:00−23сз4680100 1.1 10191137
18:00−25зсз4491100 0.1 102469
21:00−29зсз449399 0.3 102832
28 февраля, вс
вс2800:00−31зсз449396 0.1 103026
03:00−33зсз448484 0.1 103219
06:00−33зсз438122 0.0 103419
09:00−31сз338961 0.0 103636
12:00−28сз2363100 0.0 1036993
15:00−27сз2361100 0.0 10341135
18:00−30сз2276100 0.0 103619
21:00−35зсз338183 0.0 103919
1 марта, пн
пн100:00−35зсз337844 0.0 103919
03:00−35зсз337767 0.0 103919
06:00−36зсз33709 0.0 103919
09:00−34зсз226645 0.0 103819
12:00−28зсз2255100 0.0 1035366
15:00−26сз244697 0.0 10321324
18:00−31в1173100 0.0 103219
21:00−35з118499 0.0 103319
2 марта, вт
вт200:00−36з227911 0.0 103219
03:00−37з126923 0.0 103019
06:00−38юз116449 0.0 102919
09:00−36ююз116135 0.0 102719
12:00−30вюв227246 0.0 1023229
15:00−28вюв328353 0.0 1020318
18:00−33вюв1210095 0.0 102019
21:00−37з0110094 0.0 102219
3 марта, ср
ср300:00−37зюз0110097 0.0 102119
03:00−35сз119599 0.0 102019
06:00−34сз1183100 0.0 102019
09:00−31сз2276100 0.0 102019
12:00−27ссз2269100 0.0 1018476
15:00−26ссз3378100 0.0 1018626
18:00−29сз3390100 0.1 102032
21:00−32сз3391100 0.1 102419